Montana Department of Transportation

Main Content

Accidents and Incidents Report

Hourly Weather Roundup

ASUS45 KTFX 291010
RWRMT 
MONTANA REGIONAL WEATHER ROUNDUP
NATIONAL WEATHER SERVICE GREAT FALLS MT
400 AM MDT FRI MAY 29 2015

NOTE: "FAIR" INDICATES FEW OR NO CLOUDS BELOW 12000 FEET WITH NO
SIGNIFICANT WEATHER AND/OR OBSTRUCTIONS TO VISIBILITY.

MTZ001.007-043-291100-
WEST OF THE DIVIDE
  
CITY           SKY/WX    TMP DP  RH WIND       PRES   REMARKS
KALISPELL      CLOUDY    46  42  86 CALM      30.19F                  
MISSOULA       CLEAR     51  41  68 SE14      30.21S                  
BUTTE          CLOUDY    46  41  82 CALM      30.28F                  
MULLAN PASS    PTCLDY    43  42  97 SE12G21   30.21F                  
DEER LODGE       N/A     46  43  87 CALM      30.31S                  
EUREKA           N/A     48  45  87 CALM      30.20S                  
HAMILTON         N/A     46  45  93 S3        30.20F                  
LIBBY            N/A     50  48  93 SE3       30.20S                  
PLAINS           N/A     48  44  86 CALM      30.17F                  
RONAN            N/A     46  43  90 SE1       30.21F                  
THOMPSON FALLS   N/A     49  46  89 CALM      30.19F                  
--------------------------------

MTZ008-052.055-291100-
SOUTHWEST MONTANA
  
CITY           SKY/WX    TMP DP  RH WIND       PRES   REMARKS
BOZEMAN        CLOUDY    48  45  89 SW6       30.27S                  
DILLON         CLOUDY    47  43  86 NE8       30.27S                  
W YELLOWSTONE  CLEAR     34  34 100 CALM      30.29S                  
--------------------------------

MTZ009-010-012-014-046-048-049-054-291100-
EAST SLOPES AND CENTRAL MONTANA
  
CITY           SKY/WX    TMP DP  RH WIND       PRES   REMARKS
CUT BANK       CLEAR     36  36 100 E6        30.29F FOG     WCI  31  
GREAT FALLS    CLOUDY    45  44  97 NE3       30.31S FOG              
MALMSTROM AFB  CLOUDY    45  45  99 W2        30.32S                  
HELENA         CLOUDY    49  43  80 W6        30.29S                  
CONRAD           N/A     37  37 100 CALM      30.30F                  
--------------------------------

MTZ011-013-016-021-045-047-050-051-291100-
NORTH CENTRAL MONTANA
  
CITY           SKY/WX    TMP DP  RH WIND       PRES   REMARKS
HAVRE          CLEAR     37  36  96 CALM      30.31S FOG              
LEWISTOWN      CLOUDY    45  42  89 NW5       30.30S                  
N BAR RANCH    CLOUDY    43  39  87 N5        30.32S                  
CHINOOK          N/A     37  37 100 CALM      30.32S VSB 3/4          
FORT BENTON      N/A     48  43  81 CALM      30.32F                  
--------------------------------

MTZ017.020-022.027-061-062-291100-
NORTHEAST MONTANA
  
CITY           SKY/WX    TMP DP  RH WIND       PRES   REMARKS
GLASGOW        CLEAR     37  33  85 NE8       30.28S WCI  31          
JORDAN           N/A     42  40  92 N9        30.27R                  
SIDNEY         CLOUDY    45  32  61 NW13G20   30.24R                  
WOLF POINT     CLEAR     36  33  89 NW6       30.30R WCI  31          
MALTA            N/A     39  31  73 CALM      30.26R                  
PLENTYWOOD       N/A     34  30  86 N12       30.26S WCI  25          
POPLAR           N/A     36  34  93 CALM      30.29S                  
SCOBEY           N/A     31  26  81 N6        30.24F WCI  25          
--------------------------------

MTZ028.42-056.058-291100-
SOUTHCENTRAL AND SOUTHEAST MONTANA
  
CITY           SKY/WX    TMP DP  RH WIND       PRES   REMARKS
BAKER          CLOUDY    46  41  82 N13       30.20R                  
BILLINGS       CLOUDY    47  45  93 N13       30.27S                  
LIVINGSTON     CLOUDY    49  44  83 CALM      30.27S                  
MILES CITY     CLOUDY    45  38  76 N14       30.25R                  
BIG TIMBER       N/A     46  45  93 N8        30.29R                  
EKALAKA          N/A     43  40  89 NW13      30.14R                  
LAUREL           N/A     48  44  86 N6        30.24R                  
ROUNDUP          N/A     46  40  79 N5        30.18R--------------------------------

REGIONAL REPORTS...DAKOTAS
  
CITY           SKY/WX    TMP DP  RH WIND       PRES   REMARKS
WILLISTON      CLOUDY    45  34  65 N14       30.23S                  
MINOT          CLOUDY    47  38  71 N21G26    30.14R                  
DICKINSON      CLOUDY    46  43  89 N17G25    30.14R                  
BEACH          CLOUDY    45  39  81 N17       30.21R                  
CROSBY         CLOUDY    43  36  75 N13       30.24F                  
WATFORD CITY   CLOUDY    45  37  76 N14       30.19R                  
BISMARCK       CLOUDY    52  47  83 N16G22    30.08R                  
GRAND FORKS    CLOUDY    49  45  86 N24G38    29.97R                  
FARGO          CLOUDY    55  52  89 N26G35    29.90R                  
BUFFALO SD       N/A     49  47  93 N21G28    30.05R                  
RAPID CITY     CLOUDY    56  52  86 N16       30.05R                  
--------------------------------

REGIONAL REPORTS...WYOMING/IDAHO/WASHINGTON
  
CITY           SKY/WX    TMP DP  RH WIND       PRES   REMARKS
GILLETTE       LGT RAIN  50  49  96 N17G24    30.15R                  
SHERIDAN       RAIN      51  48  89 W12       30.21S                  
BUFFALO WY     LGT RAIN  48  44  86 NW16      30.20S                  
CODY           CLOUDY    48  45  87 N6        30.25S                  
YELLOWSTONE LA   N/A     31  30  96 CALM      30.33S                  
IDAHO FALLS    CLEAR     43  41  93 N6        30.23R                  
SALMON         PTCLDY    46  43  87 CALM      30.21F                  
BOISE          CLEAR     60  47  61 SE8       30.07S                  
SPOKANE        MOCLDY    58  51  78 NE9       30.07S                  
--------------------------------

REGIONAL REPORTS...ALBERTA
  
CITY           SKY/WX    TMP DP  RH WIND       PRES   REMARKS
EDMONTON       CLEAR     34  27  75 E3        30.31S                  
CALGARY        MOCLDY    45  36  70 SE12      30.24F                  
LETHBRIDGE     CLEAR     36  36 100 S8        30.27F FOG     WCI  29  
MEDICINE HAT   CLEAR     34  34 100 S5        30.32S                  
--------------------------------

REGIONAL REPORTS...SASKATCHEWAN
  
CITY           SKY/WX    TMP DP  RH WIND       PRES   REMARKS
SWIFT CURRENT  CLEAR     34  28  80 E6        30.32R WCI  29          
REGINA         CLOUDY    41  28  60 NE15      30.32S                  
SASKATOON      PTCLDY    28  27  93 VRB2      30.38                   
--------------------------------